Tracking 19489 objects as of 23-Jan-2019
HD Live streaming from Space Station
objects crossing your sky now

SL-3 R/B

Track SL-3 R/B now!
10-day predictions
SL-3 R/B is classified as:


NORAD ID: 14208
Int'l Code: 1983-075B
Perigee: 515.0 km
Apogee: 566.6 km
Inclination: 97.4 °
Period: 95.3 minutes
Semi major axis: 6911 km
RCS: 6.5943 m2 (large)
Launch date: July 24, 1983
Source: Commonwealth of Independent States (former USSR) (CIS)
Launch site: TYURATAM MISSILE AND SPACE COMPLEX (TTMTR)

Note: This is a ROCKET BODY
aabbcc
Your satellite tracking list
Your tracking list is empty




NASA's NSSDC Master Catalog

Two Line Element Set (TLE):
1 14208U 83075B   19021.86808496  .00000318  00000-0  22656-4 0  9997
2 14208  97.3545  18.9105 0037331 277.0709  82.6277 15.10839848935627
Source of the keplerian elements: AFSPC